Regional Weather Roundup
Issued by NWS

Home | Current Version | Previous Version | Text Only | Print | Product List | Glossary Off
Versions: 1 2 3 4 5 6 7 8 9 10 11 12 13 14 15 16 17 18 19 20 21 22 23 24 25 26 27 28 29 30 31 32 33 34 35 36 37 38 39 40 41 42 43 44 45 46 47 48 49 50

377
ASUS45 KCYS 240410
RWRWY

WYOMING REGIONAL WEATHER ROUNDUP
NATIONAL WEATHER SERVICE CHEYENNE WY
1000 PM MDT THU MAR 23 2017

NOTE:  "FAIR" INDICATES FEW OR NO CLOUDS BELOW 12,000 FEET
WITH NO SIGNIFICANT WEATHER AND/OR OBSTRUCTIONS TO VISIBILITY.

WYZ001-240500-
YELLOWSTONE NATIONAL PARK

CITY           SKY/WX    TMP DP  RH WIND       PRES   REMARKS
LK YELLOWSTONE   N/A     26  21  81 CALM      30.02R
W YELLOWSTONE  NOT AVBL

$$
WYZ002>013-054>058-071-098>099-240500-
NORTHERN WYOMING

CITY           SKY/WX    TMP DP  RH WIND       PRES   REMARKS
JACKSON        FAIR      32  28  86 CALM      29.98R
CODY           FAIR      40  33  76 SW7       29.99R
GREYBULL       FAIR      42  34  73 W3        29.95R
WORLAND        FAIR      37  36  96 S8        29.97R WCI  31
SHERIDAN       FAIR      43  34  70 SW3       29.97R
BUFFALO        CLOUDY    42  33  70 E5        29.99R
GILLETTE       CLOUDY    40  32  73 N3        29.98R
HULETT         CLOUDY    37  36  93 N5        29.96S FOG     WCI  34
NEWCASTLE      CLOUDY    45  28  53 N14G28    29.85F

$$
WYZ014>020-022>026-101>103-240500-
CENTRAL WYOMING

CITY           SKY/WX    TMP DP  RH WIND       PRES   REMARKS
BIG PINEY      FAIR      33  28  81 N14       29.96R WCI  23
PINEDALE       FAIR      32  32 100 NW12      29.97R WCI  23
DUBOIS         CLOUDY    34  30  86 CALM      29.99R
LANDER         CLOUDY    38  35  89 NW7       29.98R WCI  33
RIVERTON       CLOUDY    37  35  92 NW8       29.99R WCI  31
CASPER         CLOUDY    38  35  89 NE12      29.98R WCI  30
DOUGLAS        MOCLDY    39  33  79 NW20      29.91F WCI  29

$$
WYZ021-027>030-104>119-240500-
SOUTHERN WYOMING

CITY           SKY/WX    TMP DP  RH WIND       PRES   REMARKS
EVANSTON       CLOUDY    32  28  85 W3        30.00R
KEMMERER         N/A     34  30  86 NW6       29.98R WCI  29
FORT BRIDGER   CLOUDY    36  36 100 W8        30.01R WCI  29
ROCK SPRINGS   FLURRIES  38  30  73 NE12      29.96R WCI  30
DIXON            N/A     41  36  82 N5        29.89R
RAWLINS        CLOUDY    35  30  82 N7        29.91S WCI  29
SARATOGA       CLOUDY    34  32  93 NW17      29.90R WCI  23
LARAMIE        MOCLDY    36  28  73 N20       29.83R WCI  25
CHEYENNE       MIX PCPN  37  33  85 N26G38    29.81S WCI  25
TORRINGTON     CLOUDY    43  37  79 N16G23    29.84R
PINE BLUFFS    CLOUDY    41  39  93 N23G31    29.80R

$$




USA.gov is the U.S. government's official web portal to all federal, state and local government web resources and services.